Year,Month,Day,Hour,Minute,Value (Times are PST for temperature in C)
2007,08,02,00,00,16.50
2007,08,02,00,01,16.60
2007,08,02,00,02,16.80
2007,08,02,00,03,16.90
2007,08,02,00,04,17.00
2007,08,02,00,05,17.00
2007,08,02,00,06,17.10
2007,08,02,00,07,17.10
2007,08,02,00,08,17.10
2007,08,02,00,09,17.10
2007,08,02,00,10,17.00
2007,08,02,00,11,17.00
2007,08,02,00,12,16.90
2007,08,02,00,13,16.90
2007,08,02,00,14,16.90
2007,08,02,00,15,16.80
2007,08,02,00,16,16.80
2007,08,02,00,17,16.80
2007,08,02,00,18,16.70
2007,08,02,00,19,16.60
2007,08,02,00,20,16.60
2007,08,02,00,21,16.60
2007,08,02,00,22,16.50
2007,08,02,00,23,16.40
2007,08,02,00,24,16.40
2007,08,02,00,25,16.30
2007,08,02,00,26,16.30
2007,08,02,00,27,16.20
2007,08,02,00,28,16.10
2007,08,02,00,29,16.00
2007,08,02,00,30,16.00
2007,08,02,00,31,15.90
2007,08,02,00,32,15.90
2007,08,02,00,33,15.90
2007,08,02,00,34,15.80
2007,08,02,00,35,15.80
2007,08,02,00,36,15.80
2007,08,02,00,37,15.80
2007,08,02,00,38,15.70
2007,08,02,00,39,15.70
2007,08,02,00,40,15.70
2007,08,02,00,41,15.70
2007,08,02,00,42,15.70
2007,08,02,00,43,15.70
2007,08,02,00,44,15.80
2007,08,02,00,45,15.70
2007,08,02,00,46,15.70
2007,08,02,00,47,15.70
2007,08,02,00,48,15.70
2007,08,02,00,49,15.70
2007,08,02,00,50,15.60
2007,08,02,00,51,15.60
2007,08,02,00,52,15.70
2007,08,02,00,53,15.70
2007,08,02,00,54,15.70
2007,08,02,00,55,15.80
2007,08,02,00,56,15.80
2007,08,02,00,57,15.80
2007,08,02,00,58,15.80
2007,08,02,00,59,15.80
2007,08,02,01,00,15.80
2007,08,02,01,01,15.80
2007,08,02,01,02,15.70
2007,08,02,01,03,15.70
2007,08,02,01,04,15.70
2007,08,02,01,05,15.70
2007,08,02,01,06,15.70
2007,08,02,01,07,15.70
2007,08,02,01,08,15.70
2007,08,02,01,09,15.70
2007,08,02,01,10,15.60
2007,08,02,01,11,15.60
2007,08,02,01,12,15.60
2007,08,02,01,13,15.60
2007,08,02,01,14,15.60
2007,08,02,01,15,15.60
2007,08,02,01,16,15.70
2007,08,02,01,17,15.70
2007,08,02,01,18,15.70
2007,08,02,01,19,15.70
2007,08,02,01,20,15.70
2007,08,02,01,21,15.70
2007,08,02,01,22,15.70
2007,08,02,01,23,15.80
2007,08,02,01,24,15.80
2007,08,02,01,25,15.80
2007,08,02,01,26,15.80
2007,08,02,01,27,15.80
2007,08,02,01,28,15.80
2007,08,02,01,29,15.90
2007,08,02,01,30,15.90
2007,08,02,01,31,15.90
2007,08,02,01,32,16.00
2007,08,02,01,33,16.00
2007,08,02,01,34,16.00
2007,08,02,01,35,16.00
2007,08,02,01,36,16.00
2007,08,02,01,37,16.00
2007,08,02,01,38,16.00
2007,08,02,01,39,16.00
2007,08,02,01,40,16.00
2007,08,02,01,41,16.00
2007,08,02,01,42,16.00
2007,08,02,01,43,16.00
2007,08,02,01,44,16.00
2007,08,02,01,45,16.00
2007,08,02,01,46,16.00
2007,08,02,01,47,15.90
2007,08,02,01,48,15.90
2007,08,02,01,49,15.90
2007,08,02,01,50,15.90
2007,08,02,01,51,15.90
2007,08,02,01,52,15.90
2007,08,02,01,53,15.90
2007,08,02,01,54,15.90
2007,08,02,01,55,15.90
2007,08,02,01,56,15.90
2007,08,02,01,57,15.90
2007,08,02,01,58,15.90
2007,08,02,01,59,15.90
2007,08,02,02,00,15.90
2007,08,02,02,01,15.90
2007,08,02,02,02,15.90
2007,08,02,02,03,15.90
2007,08,02,02,04,15.90
2007,08,02,02,05,15.90
2007,08,02,02,06,15.90
2007,08,02,02,07,16.00
2007,08,02,02,08,16.00
2007,08,02,02,09,16.00
2007,08,02,02,10,16.00
2007,08,02,02,11,16.00
2007,08,02,02,12,16.10
2007,08,02,02,13,16.00
2007,08,02,02,14,16.00
2007,08,02,02,15,16.00
2007,08,02,02,16,16.00
2007,08,02,02,17,15.90
2007,08,02,02,18,15.90
2007,08,02,02,19,15.90
2007,08,02,02,20,15.90
2007,08,02,02,21,15.90
2007,08,02,02,22,15.90
2007,08,02,02,23,15.90
2007,08,02,02,24,15.80
2007,08,02,02,25,15.80
2007,08,02,02,26,15.80
2007,08,02,02,27,15.80
2007,08,02,02,28,15.80
2007,08,02,02,29,15.70
2007,08,02,02,30,15.70
2007,08,02,02,31,15.70
2007,08,02,02,32,15.70
2007,08,02,02,33,15.70
2007,08,02,02,34,15.70
2007,08,02,02,35,15.70
2007,08,02,02,36,15.60
2007,08,02,02,37,15.60
2007,08,02,02,38,15.60
2007,08,02,02,39,15.50
2007,08,02,02,40,15.50
2007,08,02,02,41,15.50
2007,08,02,02,42,15.40
2007,08,02,02,43,15.40
2007,08,02,02,44,15.40
2007,08,02,02,45,15.40
2007,08,02,02,46,15.40
2007,08,02,02,47,15.40
2007,08,02,02,48,15.40
2007,08,02,02,49,15.40
2007,08,02,02,50,15.40
2007,08,02,02,51,15.40
2007,08,02,02,52,15.40
2007,08,02,02,53,15.40
2007,08,02,02,54,15.40
2007,08,02,02,55,15.40
2007,08,02,02,56,15.30
2007,08,02,02,57,15.30
2007,08,02,02,58,15.20
2007,08,02,02,59,15.10
2007,08,02,03,00,15.00
2007,08,02,03,01,15.00
2007,08,02,03,02,15.00
2007,08,02,03,03,15.00
2007,08,02,03,04,15.00
2007,08,02,03,05,15.00
2007,08,02,03,06,15.00
2007,08,02,03,07,15.00
2007,08,02,03,08,15.00
2007,08,02,03,09,15.00
2007,08,02,03,10,15.00
2007,08,02,03,11,15.00
2007,08,02,03,12,15.00
2007,08,02,03,13,15.00
2007,08,02,03,14,15.00
2007,08,02,03,15,15.10
2007,08,02,03,16,15.10
2007,08,02,03,17,15.10
2007,08,02,03,18,15.10
2007,08,02,03,19,15.10
2007,08,02,03,20,15.10
2007,08,02,03,21,15.10
2007,08,02,03,22,15.10
2007,08,02,03,23,15.10
2007,08,02,03,24,15.20
2007,08,02,03,25,15.20
2007,08,02,03,26,15.20
2007,08,02,03,27,15.20
2007,08,02,03,28,15.20
2007,08,02,03,29,15.20
2007,08,02,03,30,15.20
2007,08,02,03,31,15.30
2007,08,02,03,32,15.40
2007,08,02,03,33,15.40
2007,08,02,03,34,15.40
2007,08,02,03,35,15.40
2007,08,02,03,36,15.40
2007,08,02,03,37,15.40
2007,08,02,03,38,15.40
2007,08,02,03,39,15.40
2007,08,02,03,40,15.40
2007,08,02,03,41,15.40
2007,08,02,03,42,15.40
2007,08,02,03,43,15.40
2007,08,02,03,44,15.40
2007,08,02,03,45,15.40
2007,08,02,03,46,15.40
2007,08,02,03,47,15.40
2007,08,02,03,48,15.30
2007,08,02,03,49,15.40
2007,08,02,03,50,15.30
2007,08,02,03,51,15.40
2007,08,02,03,52,15.40
2007,08,02,03,53,15.40
2007,08,02,03,54,15.40
2007,08,02,03,55,15.50
2007,08,02,03,56,15.50
2007,08,02,03,57,15.50
2007,08,02,03,58,15.50
2007,08,02,03,59,15.50
2007,08,02,04,00,15.50
2007,08,02,04,01,15.50
2007,08,02,04,02,15.50
2007,08,02,04,03,15.50
2007,08,02,04,04,15.50
2007,08,02,04,05,15.40
2007,08,02,04,06,15.40
2007,08,02,04,07,15.40
2007,08,02,04,08,15.40
2007,08,02,04,09,15.40
2007,08,02,04,10,15.40
2007,08,02,04,11,15.40
2007,08,02,04,12,15.40
2007,08,02,04,13,15.50
2007,08,02,04,14,15.50
2007,08,02,04,15,15.50
2007,08,02,04,16,15.50
2007,08,02,04,17,15.50
2007,08,02,04,18,15.50
2007,08,02,04,19,15.50
2007,08,02,04,20,15.50
2007,08,02,04,21,15.50
2007,08,02,04,22,15.50
2007,08,02,04,23,15.50
2007,08,02,04,24,15.50
2007,08,02,04,25,15.50
2007,08,02,04,26,15.50
2007,08,02,04,27,15.50
2007,08,02,04,28,15.50
2007,08,02,04,29,15.50
2007,08,02,04,30,15.50
2007,08,02,04,31,15.50
2007,08,02,04,32,15.40
2007,08,02,04,33,15.40
2007,08,02,04,34,15.40
2007,08,02,04,35,15.30
2007,08,02,04,36,15.30
2007,08,02,04,37,15.20
2007,08,02,04,38,15.10
2007,08,02,04,39,15.00
2007,08,02,04,40,15.00
2007,08,02,04,41,15.00
2007,08,02,04,42,15.00
2007,08,02,04,43,15.00
2007,08,02,04,44,14.90
2007,08,02,04,45,14.80
2007,08,02,04,46,14.80
2007,08,02,04,47,14.80
2007,08,02,04,48,14.70
2007,08,02,04,49,14.70
2007,08,02,04,50,14.60
2007,08,02,04,51,14.60
2007,08,02,04,52,14.50
2007,08,02,04,53,14.50
2007,08,02,04,54,14.50
2007,08,02,04,55,14.40
2007,08,02,04,56,14.40
2007,08,02,04,57,14.40
2007,08,02,04,58,14.30
2007,08,02,04,59,14.30
2007,08,02,05,00,14.30
2007,08,02,05,01,14.20
2007,08,02,05,02,14.20
2007,08,02,05,03,14.20
2007,08,02,05,04,14.10
2007,08,02,05,05,14.10
2007,08,02,05,06,14.10
2007,08,02,05,07,14.00
2007,08,02,05,08,14.00
2007,08,02,05,09,13.90
2007,08,02,05,10,13.90
2007,08,02,05,11,13.90
2007,08,02,05,12,13.90
2007,08,02,05,13,13.90
2007,08,02,05,14,13.80
2007,08,02,05,15,13.80
2007,08,02,05,16,13.80
2007,08,02,05,17,13.80
2007,08,02,05,18,13.80
2007,08,02,05,19,13.80
2007,08,02,05,20,13.80
2007,08,02,05,21,13.80
2007,08,02,05,22,13.80
2007,08,02,05,23,13.80
2007,08,02,05,24,13.80
2007,08,02,05,25,13.80
2007,08,02,05,26,13.70
2007,08,02,05,27,13.70
2007,08,02,05,28,13.70
2007,08,02,05,29,13.70
2007,08,02,05,30,13.70
2007,08,02,05,31,13.60
2007,08,02,05,32,13.60
2007,08,02,05,33,13.60
2007,08,02,05,34,13.60
2007,08,02,05,35,13.50
2007,08,02,05,36,13.50
2007,08,02,05,37,13.50
2007,08,02,05,38,13.40
2007,08,02,05,39,13.40
2007,08,02,05,40,13.40
2007,08,02,05,41,13.40
2007,08,02,05,42,13.40
2007,08,02,05,43,13.40
2007,08,02,05,44,13.30
2007,08,02,05,45,13.30
2007,08,02,05,46,13.30
2007,08,02,05,47,13.20
2007,08,02,05,48,13.20
2007,08,02,05,49,13.20
2007,08,02,05,50,13.20
2007,08,02,05,51,13.20
2007,08,02,05,52,13.20
2007,08,02,05,53,13.20
2007,08,02,05,54,13.20
2007,08,02,05,55,13.20
2007,08,02,05,56,13.20
2007,08,02,05,57,13.20
2007,08,02,05,58,13.20
2007,08,02,05,59,13.20
2007,08,02,06,00,13.20
2007,08,02,06,01,13.20
2007,08,02,06,02,13.20
2007,08,02,06,03,13.20
2007,08,02,06,04,13.20
2007,08,02,06,05,13.20
2007,08,02,06,06,13.20
2007,08,02,06,07,13.10
2007,08,02,06,08,13.10
2007,08,02,06,09,13.10
2007,08,02,06,10,13.00
2007,08,02,06,11,13.00
2007,08,02,06,12,12.90
2007,08,02,06,13,12.90
2007,08,02,06,14,12.90
2007,08,02,06,15,12.90
2007,08,02,06,16,12.80
2007,08,02,06,17,12.80
2007,08,02,06,18,12.80
2007,08,02,06,19,12.80
2007,08,02,06,20,12.80
2007,08,02,06,21,12.80
2007,08,02,06,22,12.80
2007,08,02,06,23,12.80
2007,08,02,06,24,12.80
2007,08,02,06,25,12.80
2007,08,02,06,26,12.80
2007,08,02,06,27,12.80
2007,08,02,06,28,12.80
2007,08,02,06,29,12.80
2007,08,02,06,30,12.80
2007,08,02,06,31,12.80
2007,08,02,06,32,12.80
2007,08,02,06,33,12.80
2007,08,02,06,34,12.90
2007,08,02,06,35,12.90
2007,08,02,06,36,12.90
2007,08,02,06,37,13.00
2007,08,02,06,38,13.10
2007,08,02,06,39,13.10
2007,08,02,06,40,13.20
2007,08,02,06,41,13.30
2007,08,02,06,42,13.30
2007,08,02,06,43,13.40
2007,08,02,06,44,13.50
2007,08,02,06,45,13.50
2007,08,02,06,46,13.60
2007,08,02,06,47,13.70
2007,08,02,06,48,13.80
2007,08,02,06,49,13.80
2007,08,02,06,50,13.90
2007,08,02,06,51,14.00
2007,08,02,06,52,14.10
2007,08,02,06,53,14.10
2007,08,02,06,54,14.20
2007,08,02,06,55,14.20
2007,08,02,06,56,14.30
2007,08,02,06,57,14.40
2007,08,02,06,58,14.50
2007,08,02,06,59,14.60
2007,08,02,07,00,14.60
2007,08,02,07,01,14.70
2007,08,02,07,02,14.80
2007,08,02,07,03,14.90
2007,08,02,07,04,15.00
2007,08,02,07,05,15.00
2007,08,02,07,06,15.10
2007,08,02,07,07,15.20
2007,08,02,07,08,15.40
2007,08,02,07,09,15.50
2007,08,02,07,10,15.70
2007,08,02,07,11,15.80
2007,08,02,07,12,15.90
2007,08,02,07,13,16.00
2007,08,02,07,14,16.10
2007,08,02,07,15,16.20
2007,08,02,07,16,16.30
2007,08,02,07,17,16.40
2007,08,02,07,18,16.60
2007,08,02,07,19,16.70
2007,08,02,07,20,16.70
2007,08,02,07,21,16.80
2007,08,02,07,22,16.90
2007,08,02,07,23,16.90
2007,08,02,07,24,17.00
2007,08,02,07,25,17.00
2007,08,02,07,26,17.00
2007,08,02,07,27,17.10
2007,08,02,07,28,17.10
2007,08,02,07,29,17.10
2007,08,02,07,30,17.10
2007,08,02,07,31,17.10
2007,08,02,07,32,17.10
2007,08,02,07,33,17.10
2007,08,02,07,34,17.10
2007,08,02,07,35,17.20
2007,08,02,07,36,17.20
2007,08,02,07,37,17.20
2007,08,02,07,38,17.20
2007,08,02,07,39,17.20
2007,08,02,07,40,17.20
2007,08,02,07,41,17.30
2007,08,02,07,42,17.30
2007,08,02,07,43,17.30
2007,08,02,07,44,17.30
2007,08,02,07,45,17.30
2007,08,02,07,46,17.30
2007,08,02,07,47,17.30
2007,08,02,07,48,17.30
2007,08,02,07,49,17.30
2007,08,02,07,50,17.30
2007,08,02,07,51,17.20
2007,08,02,07,52,17.20
2007,08,02,07,53,17.20
2007,08,02,07,54,17.20
2007,08,02,07,55,17.20
2007,08,02,07,56,17.20
2007,08,02,07,57,17.30
2007,08,02,07,58,17.30
2007,08,02,07,59,17.30
2007,08,02,08,00,17.40
2007,08,02,08,01,17.40
2007,08,02,08,02,17.40
2007,08,02,08,03,17.50
2007,08,02,08,04,17.60
2007,08,02,08,05,17.60
2007,08,02,08,06,17.70
2007,08,02,08,07,17.80
2007,08,02,08,08,17.90
2007,08,02,08,09,18.00
2007,08,02,08,10,18.10
2007,08,02,08,11,18.20
2007,08,02,08,12,18.30
2007,08,02,08,13,18.40
2007,08,02,08,14,18.50
2007,08,02,08,15,18.60
2007,08,02,08,16,18.70
2007,08,02,08,17,18.80
2007,08,02,08,18,18.90
2007,08,02,08,19,18.90
2007,08,02,08,20,19.00
2007,08,02,08,21,19.10
2007,08,02,08,22,19.10
2007,08,02,08,23,19.20
2007,08,02,08,24,19.30
2007,08,02,08,25,19.30
2007,08,02,08,26,19.40
2007,08,02,08,27,19.50
2007,08,02,08,28,19.60
2007,08,02,08,29,19.60
2007,08,02,08,30,19.70
2007,08,02,08,31,19.80
2007,08,02,08,32,19.80
2007,08,02,08,33,19.90
2007,08,02,08,34,20.00
2007,08,02,08,35,20.20
2007,08,02,08,36,20.20
2007,08,02,08,37,20.30
2007,08,02,08,38,20.40
2007,08,02,08,39,20.40
2007,08,02,08,40,20.50
2007,08,02,08,41,20.60
2007,08,02,08,42,20.60
2007,08,02,08,43,20.70
2007,08,02,08,44,20.80
2007,08,02,08,45,20.80
2007,08,02,08,46,20.90
2007,08,02,08,47,21.00
2007,08,02,08,48,21.00
2007,08,02,08,49,21.10
2007,08,02,08,50,21.10
2007,08,02,08,51,21.10
2007,08,02,08,52,21.10
2007,08,02,08,53,21.00
2007,08,02,08,54,20.90
2007,08,02,08,55,20.80
2007,08,02,08,56,20.60
2007,08,02,08,57,20.50
2007,08,02,08,58,20.50
2007,08,02,08,59,20.50
2007,08,02,09,00,20.50
2007,08,02,09,01,20.50
2007,08,02,09,02,20.50
2007,08,02,09,03,20.50
2007,08,02,09,04,20.60
2007,08,02,09,05,20.60
2007,08,02,09,06,20.60
2007,08,02,09,07,20.70
2007,08,02,09,08,20.80
2007,08,02,09,09,20.90
2007,08,02,09,10,21.00
2007,08,02,09,11,21.10
2007,08,02,09,12,21.20
2007,08,02,09,13,21.30
2007,08,02,09,14,21.30
2007,08,02,09,15,21.40
2007,08,02,09,16,21.50
2007,08,02,09,17,21.60
2007,08,02,09,18,21.80
2007,08,02,09,19,21.90
2007,08,02,09,20,22.10
2007,08,02,09,21,22.30
2007,08,02,09,22,22.40
2007,08,02,09,23,22.60
2007,08,02,09,24,22.70
2007,08,02,09,25,22.80
2007,08,02,09,26,23.00
2007,08,02,09,27,23.00
2007,08,02,09,28,23.10
2007,08,02,09,29,23.20
2007,08,02,09,30,23.20
2007,08,02,09,31,23.20
2007,08,02,09,32,23.20
2007,08,02,09,33,23.10
2007,08,02,09,34,23.20
2007,08,02,09,35,23.20
2007,08,02,09,36,23.20
2007,08,02,09,37,23.10
2007,08,02,09,38,23.00
2007,08,02,09,39,22.90
2007,08,02,09,40,22.90
2007,08,02,09,41,23.00
2007,08,02,09,42,23.00
2007,08,02,09,43,23.10
2007,08,02,09,44,23.20
2007,08,02,09,45,23.30
2007,08,02,09,46,23.40
2007,08,02,09,47,23.50
2007,08,02,09,48,23.50
2007,08,02,09,49,23.60
2007,08,02,09,50,23.60
2007,08,02,09,51,23.70
2007,08,02,09,52,23.70
2007,08,02,09,53,23.70
2007,08,02,09,54,23.60
2007,08,02,09,55,23.50
2007,08,02,09,56,23.40
2007,08,02,09,57,23.40
2007,08,02,09,58,23.30
2007,08,02,09,59,23.30
2007,08,02,10,00,23.20
2007,08,02,10,01,23.20
2007,08,02,10,02,23.20
2007,08,02,10,03,23.30
2007,08,02,10,04,23.30
2007,08,02,10,05,23.30
2007,08,02,10,06,23.30
2007,08,02,10,07,23.30
2007,08,02,10,08,23.20
2007,08,02,10,09,23.10
2007,08,02,10,10,23.20
2007,08,02,10,11,23.20
2007,08,02,10,12,23.30
2007,08,02,10,13,23.40
2007,08,02,10,14,23.40
2007,08,02,10,15,23.60
2007,08,02,10,16,23.60
2007,08,02,10,17,23.70
2007,08,02,10,18,23.80
2007,08,02,10,19,23.80
2007,08,02,10,20,23.80
2007,08,02,10,21,23.80
2007,08,02,10,22,23.90
2007,08,02,10,23,24.00
2007,08,02,10,24,24.10
2007,08,02,10,25,24.20
2007,08,02,10,26,24.20
2007,08,02,10,27,24.30
2007,08,02,10,28,24.30
2007,08,02,10,29,24.30
2007,08,02,10,30,24.20
2007,08,02,10,31,24.20
2007,08,02,10,32,24.20
2007,08,02,10,33,24.20
2007,08,02,10,34,24.20
2007,08,02,10,35,24.20
2007,08,02,10,36,24.30
2007,08,02,10,37,24.40
2007,08,02,10,38,24.40
2007,08,02,10,39,24.40
2007,08,02,10,40,24.40
2007,08,02,10,41,24.30
2007,08,02,10,42,24.20
2007,08,02,10,43,24.30
2007,08,02,10,44,24.40
2007,08,02,10,45,24.50
2007,08,02,10,46,24.40
2007,08,02,10,47,24.30
2007,08,02,10,48,24.20
2007,08,02,10,49,24.10
2007,08,02,10,50,24.10
2007,08,02,10,51,24.10
2007,08,02,10,52,24.10
2007,08,02,10,53,24.10
2007,08,02,10,54,24.00
2007,08,02,10,55,23.90
2007,08,02,10,56,23.90
2007,08,02,10,57,23.90
2007,08,02,10,58,24.00
2007,08,02,10,59,24.10
2007,08,02,11,00,24.10
2007,08,02,11,01,24.00
2007,08,02,11,02,23.80
2007,08,02,11,03,23.70
2007,08,02,11,04,23.70
2007,08,02,11,05,23.70
2007,08,02,11,06,23.60
2007,08,02,11,07,23.50
2007,08,02,11,08,23.40
2007,08,02,11,09,23.40
2007,08,02,11,10,23.40
2007,08,02,11,11,23.40
2007,08,02,11,12,23.40
2007,08,02,11,13,23.40
2007,08,02,11,14,23.40
2007,08,02,11,15,23.50
2007,08,02,11,16,23.50
2007,08,02,11,17,23.40
2007,08,02,11,18,23.40
2007,08,02,11,19,23.30
2007,08,02,11,20,23.40
2007,08,02,11,21,23.40
2007,08,02,11,22,23.40
2007,08,02,11,23,23.50
2007,08,02,11,24,23.50
2007,08,02,11,25,23.40
2007,08,02,11,26,23.30
2007,08,02,11,27,23.30
2007,08,02,11,28,23.20
2007,08,02,11,29,23.20
2007,08,02,11,30,23.10
2007,08,02,11,31,23.00
2007,08,02,11,32,22.80
2007,08,02,11,33,22.80
2007,08,02,11,34,22.90
2007,08,02,11,35,22.90
2007,08,02,11,36,22.90
2007,08,02,11,37,23.00
2007,08,02,11,38,23.00
2007,08,02,11,39,23.10
2007,08,02,11,40,23.20
2007,08,02,11,41,23.30
2007,08,02,11,42,23.40
2007,08,02,11,43,23.30
2007,08,02,11,44,23.30
2007,08,02,11,45,23.30
2007,08,02,11,46,23.40
2007,08,02,11,47,23.50
2007,08,02,11,48,23.50
2007,08,02,11,49,23.50
2007,08,02,11,50,23.50
2007,08,02,11,51,23.50
2007,08,02,11,52,23.50
2007,08,02,11,53,23.40
2007,08,02,11,54,23.30
2007,08,02,11,55,23.40
2007,08,02,11,56,23.30
2007,08,02,11,57,23.40
2007,08,02,11,58,23.40
2007,08,02,11,59,23.40
2007,08,02,12,00,23.40
2007,08,02,12,01,23.30
2007,08,02,12,02,23.30
2007,08,02,12,03,23.30
2007,08,02,12,04,23.40
2007,08,02,12,05,23.50
2007,08,02,12,06,23.60
2007,08,02,12,07,23.80
2007,08,02,12,08,23.80
2007,08,02,12,09,23.80
2007,08,02,12,10,23.70
2007,08,02,12,11,23.60
2007,08,02,12,12,23.60
2007,08,02,12,13,23.50
2007,08,02,12,14,23.50
2007,08,02,12,15,23.60
2007,08,02,12,16,23.60
2007,08,02,12,17,23.60
2007,08,02,12,18,23.70
2007,08,02,12,19,23.70
2007,08,02,12,20,23.70
2007,08,02,12,21,23.90
2007,08,02,12,22,24.00
2007,08,02,12,23,24.00
2007,08,02,12,24,24.00
2007,08,02,12,25,23.90
2007,08,02,12,26,24.00
2007,08,02,12,27,24.30
2007,08,02,12,28,24.50
2007,08,02,12,29,24.70
2007,08,02,12,30,24.90
2007,08,02,12,31,25.00
2007,08,02,12,32,25.00
2007,08,02,12,33,24.90
2007,08,02,12,34,24.80
2007,08,02,12,35,24.60
2007,08,02,12,36,24.50
2007,08,02,12,37,24.50
2007,08,02,12,38,24.50
2007,08,02,12,39,24.60
2007,08,02,12,40,24.60
2007,08,02,12,41,24.50
2007,08,02,12,42,24.50
2007,08,02,12,43,24.50
2007,08,02,12,44,24.60
2007,08,02,12,45,24.60
2007,08,02,12,46,24.60
2007,08,02,12,47,24.60
2007,08,02,12,48,24.50
2007,08,02,12,49,24.60
2007,08,02,12,50,24.60
2007,08,02,12,51,24.60
2007,08,02,12,52,24.60
2007,08,02,12,53,24.80
2007,08,02,12,54,24.90
2007,08,02,12,55,24.90
2007,08,02,12,56,24.90
2007,08,02,12,57,24.90
2007,08,02,12,58,24.80
2007,08,02,12,59,24.60
2007,08,02,13,00,24.50
2007,08,02,13,01,24.60
2007,08,02,13,02,24.60
2007,08,02,13,03,24.60
2007,08,02,13,04,24.70
2007,08,02,13,05,24.70
2007,08,02,13,06,24.70
2007,08,02,13,07,24.80
2007,08,02,13,08,24.80
2007,08,02,13,09,24.80
2007,08,02,13,10,24.80
2007,08,02,13,11,24.90
2007,08,02,13,12,25.00
2007,08,02,13,13,25.00
2007,08,02,13,14,24.90
2007,08,02,13,15,24.70
2007,08,02,13,16,24.70
2007,08,02,13,17,24.60
2007,08,02,13,18,24.60
2007,08,02,13,19,24.70
2007,08,02,13,20,24.80
2007,08,02,13,21,24.90
2007,08,02,13,22,24.90
2007,08,02,13,23,24.90
2007,08,02,13,24,25.00
2007,08,02,13,25,25.10
2007,08,02,13,26,25.20
2007,08,02,13,27,25.20
2007,08,02,13,28,25.20
2007,08,02,13,29,25.10
2007,08,02,13,30,24.90
2007,08,02,13,31,24.90
2007,08,02,13,32,24.80
2007,08,02,13,33,24.80
2007,08,02,13,34,24.80
2007,08,02,13,35,24.80
2007,08,02,13,36,24.80
2007,08,02,13,37,24.80
2007,08,02,13,38,24.90
2007,08,02,13,39,25.00
2007,08,02,13,40,25.00
2007,08,02,13,41,25.00
2007,08,02,13,42,25.00
2007,08,02,13,43,25.10
2007,08,02,13,44,25.10
2007,08,02,13,45,25.10
2007,08,02,13,46,25.10
2007,08,02,13,47,25.00
2007,08,02,13,48,24.90
2007,08,02,13,49,24.90
2007,08,02,13,50,24.90
2007,08,02,13,51,25.00
2007,08,02,13,52,25.00
2007,08,02,13,53,25.10
2007,08,02,13,54,25.20
2007,08,02,13,55,25.30
2007,08,02,13,56,25.30
2007,08,02,13,57,25.20
2007,08,02,13,58,25.10
2007,08,02,13,59,25.10
2007,08,02,14,00,25.00
2007,08,02,14,01,25.00
2007,08,02,14,02,25.10
2007,08,02,14,03,25.00
2007,08,02,14,04,24.90
2007,08,02,14,05,25.00
2007,08,02,14,06,25.10
2007,08,02,14,07,25.10
2007,08,02,14,08,25.20
2007,08,02,14,09,25.10
2007,08,02,14,10,25.10
2007,08,02,14,11,25.10
2007,08,02,14,12,25.10
2007,08,02,14,13,25.10
2007,08,02,14,14,25.10
2007,08,02,14,15,25.10
2007,08,02,14,16,25.20
2007,08,02,14,17,25.20
2007,08,02,14,18,25.20
2007,08,02,14,19,25.30
2007,08,02,14,20,25.40
2007,08,02,14,21,25.50
2007,08,02,14,22,25.60
2007,08,02,14,23,25.50
2007,08,02,14,24,25.30
2007,08,02,14,25,25.20
2007,08,02,14,26,25.20
2007,08,02,14,27,25.10
2007,08,02,14,28,25.10
2007,08,02,14,29,25.20
2007,08,02,14,30,25.20
2007,08,02,14,31,25.20
2007,08,02,14,32,25.30
2007,08,02,14,33,25.30
2007,08,02,14,34,25.40
2007,08,02,14,35,25.40
2007,08,02,14,36,25.40
2007,08,02,14,37,25.50
2007,08,02,14,38,25.60
2007,08,02,14,39,25.80
2007,08,02,14,40,25.80
2007,08,02,14,41,25.80
2007,08,02,14,42,25.70
2007,08,02,14,43,25.60
2007,08,02,14,44,25.60
2007,08,02,14,45,25.70
2007,08,02,14,46,25.70
2007,08,02,14,47,25.70
2007,08,02,14,48,25.70
2007,08,02,14,49,25.70
2007,08,02,14,50,25.50
2007,08,02,14,51,25.20
2007,08,02,14,52,25.00
2007,08,02,14,53,24.90
2007,08,02,14,54,24.90
2007,08,02,14,55,24.90
2007,08,02,14,56,25.00
2007,08,02,14,57,25.00
2007,08,02,14,58,24.80
2007,08,02,14,59,24.80
2007,08,02,15,00,24.70
2007,08,02,15,01,24.50
2007,08,02,15,02,24.40
2007,08,02,15,03,24.30
2007,08,02,15,04,24.20
2007,08,02,15,05,24.10
2007,08,02,15,06,24.10
2007,08,02,15,07,24.20
2007,08,02,15,08,24.20
2007,08,02,15,09,24.20
2007,08,02,15,10,24.20
2007,08,02,15,11,24.20
2007,08,02,15,12,24.30
2007,08,02,15,13,24.40
2007,08,02,15,14,24.50
2007,08,02,15,15,24.60
2007,08,02,15,16,24.70
2007,08,02,15,17,24.70
2007,08,02,15,18,24.70
2007,08,02,15,19,24.70
2007,08,02,15,20,24.60
2007,08,02,15,21,24.50
2007,08,02,15,22,24.40
2007,08,02,15,23,24.40
2007,08,02,15,24,24.30
2007,08,02,15,25,24.30
2007,08,02,15,26,24.30
2007,08,02,15,27,24.40
2007,08,02,15,28,24.30
2007,08,02,15,29,24.40
2007,08,02,15,30,24.40
2007,08,02,15,31,24.40
2007,08,02,15,32,24.50
2007,08,02,15,33,24.40
2007,08,02,15,34,24.50
2007,08,02,15,35,24.40
2007,08,02,15,36,24.40
2007,08,02,15,37,24.30
2007,08,02,15,38,24.30
2007,08,02,15,39,24.30
2007,08,02,15,40,24.20
2007,08,02,15,41,24.20
2007,08,02,15,42,24.20
2007,08,02,15,43,24.20
2007,08,02,15,44,24.10
2007,08,02,15,45,24.10
2007,08,02,15,46,24.10
2007,08,02,15,47,24.10
2007,08,02,15,48,24.10
2007,08,02,15,49,24.10
2007,08,02,15,50,24.10
2007,08,02,15,51,24.20
2007,08,02,15,52,24.20
2007,08,02,15,53,24.30
2007,08,02,15,54,24.20
2007,08,02,15,55,24.20
2007,08,02,15,56,24.10
2007,08,02,15,57,24.10
2007,08,02,15,58,24.20
2007,08,02,15,59,24.20
2007,08,02,16,00,24.30
2007,08,02,16,01,24.40
2007,08,02,16,02,24.50
2007,08,02,16,03,24.40
2007,08,02,16,04,24.40
2007,08,02,16,05,24.30
2007,08,02,16,06,24.30
2007,08,02,16,07,24.30
2007,08,02,16,08,24.30
2007,08,02,16,09,24.20
2007,08,02,16,10,24.20
2007,08,02,16,11,24.10
2007,08,02,16,12,24.10
2007,08,02,16,13,24.10
2007,08,02,16,14,24.20
2007,08,02,16,15,24.30
2007,08,02,16,16,24.50
2007,08,02,16,17,24.60
2007,08,02,16,18,24.70
2007,08,02,16,19,24.80
2007,08,02,16,20,24.80
2007,08,02,16,21,24.90
2007,08,02,16,22,24.90
2007,08,02,16,23,25.00
2007,08,02,16,24,25.10
2007,08,02,16,25,25.30
2007,08,02,16,26,25.40
2007,08,02,16,27,25.50
2007,08,02,16,28,25.50
2007,08,02,16,29,25.40
2007,08,02,16,30,25.30
2007,08,02,16,31,25.30
2007,08,02,16,32,25.20
2007,08,02,16,33,25.20
2007,08,02,16,34,25.20
2007,08,02,16,35,25.20
2007,08,02,16,36,25.20
2007,08,02,16,37,25.10
2007,08,02,16,38,25.10
2007,08,02,16,39,25.10
2007,08,02,16,40,25.10
2007,08,02,16,41,25.10
2007,08,02,16,42,25.10
2007,08,02,16,43,25.10
2007,08,02,16,44,25.10
2007,08,02,16,45,25.10
2007,08,02,16,46,25.20
2007,08,02,16,47,25.10
2007,08,02,16,48,25.10
2007,08,02,16,49,25.10
2007,08,02,16,50,25.10
2007,08,02,16,51,25.10
2007,08,02,16,52,25.10
2007,08,02,16,53,25.20
2007,08,02,16,54,25.20
2007,08,02,16,55,25.20
2007,08,02,16,56,25.30
2007,08,02,16,57,25.30
2007,08,02,16,58,25.30
2007,08,02,16,59,25.30
2007,08,02,17,00,25.30
2007,08,02,17,01,25.40
2007,08,02,17,02,25.40
2007,08,02,17,03,25.40
2007,08,02,17,04,25.30
2007,08,02,17,05,25.30
2007,08,02,17,06,25.40
2007,08,02,17,07,25.40
2007,08,02,17,08,25.40
2007,08,02,17,09,25.50
2007,08,02,17,10,25.60
2007,08,02,17,11,25.60
2007,08,02,17,12,25.70
2007,08,02,17,13,25.60
2007,08,02,17,14,25.60
2007,08,02,17,15,25.70
2007,08,02,17,16,25.80
2007,08,02,17,17,25.80
2007,08,02,17,18,25.90
2007,08,02,17,19,25.90